When you browse on this site, cookies collect data to enhance your experience and personalize the content and advertising you see.
Visit our Privacy Policy to learn more. By continuing to use the site, you agree to this use of cookies and data.

Hourly Weather Arvika

Today, 4 July, Saturday

Time Temperature Precipitation Wind Pressure Humidity
00:00 +12°C° 0.9 mm 2 mps 747 mmHg 93%
01:00 +12°C° 0 mm 1 mps 747 mmHg 98%
02:00 +12°C° 1 mm 1 mps 746 mmHg 98%
03:00 +12°C° 1 mm 1 mps 746 mmHg 98%
04:00 +11°C° 1 mm 0 mps 746 mmHg 98%
05:00 +11°C° 0.5 mm 0 mps 745 mmHg 97%
06:00 +12°C° 0.5 mm 1 mps 745 mmHg 97%
07:00 +12°C° 0.5 mm 1 mps 745 mmHg 96%
08:00 +13°C° 0.2 mm 1 mps 745 mmHg 90%
09:00 +14°C° 0.2 mm 1 mps 745 mmHg 84%
10:00 +15°C° 0.2 mm 1 mps 745 mmHg 78%
11:00 +18°C° 0 mm 1 mps 745 mmHg 66%
12:00 +20°C° 0 mm 1 mps 745 mmHg 54%
13:00 +22°C° 0 mm 1 mps 745 mmHg 42%
14:00 +22°C° 0 mm 1 mps 745 mmHg 43%
15:00 +21°C° 0 mm 1 mps 745 mmHg 44%
16:00 +20°C° 0 mm 2 mps 745 mmHg 45%
17:00 +20°C° 0.1 mm 1 mps 745 mmHg 52%
18:00 +19°C° 0.1 mm 1 mps 745 mmHg 59%
19:00 +19°C° 0.1 mm 1 mps 745 mmHg 67%
20:00 +16°C° 0.1 mm 1 mps 745 mmHg 74%
21:00 +15°C° 0.1 mm 1 mps 745 mmHg 80%
22:00 +14°C° 0.1 mm 1 mps 745 mmHg 87%
23:00 +13°C° 0.1 mm 1 mps 745 mmHg 89%

Tomorrow, 5 July, Sunday

Time Temperature Precipitation Wind Pressure Humidity
00:00 +12°C° 0.1 mm 1 mps 745 mmHg 91%
01:00 +11°C° 0.1 mm 0 mps 745 mmHg 92%
02:00 +11°C° 0.2 mm 0 mps 744 mmHg 93%
03:00 +12°C° 0.2 mm 1 mps 744 mmHg 93%
04:00 +12°C° 0.2 mm 1 mps 744 mmHg 94%
05:00 +13°C° 0.2 mm 1 mps 743 mmHg 94%
06:00 +14°C° 0.2 mm 2 mps 743 mmHg 94%
07:00 +15°C° 0.2 mm 2 mps 743 mmHg 94%
08:00 +14°C° 0.3 mm 3 mps 742 mmHg 90%
09:00 +16°C° 0.3 mm 3 mps 742 mmHg 87%
10:00 +17°C° 0.3 mm 3 mps 741 mmHg 84%
11:00 +16°C° 1.9 mm 3 mps 740 mmHg 88%
12:00 +14°C° 1.9 mm 4 mps 738 mmHg 93%
13:00 +13°C° 1.9 mm 4 mps 737 mmHg 97%
14:00 +14°C° 1.8 mm 4 mps 737 mmHg 95%
15:00 +15°C° 1.8 mm 4 mps 736 mmHg 93%
16:00 +16°C° 1.8 mm 5 mps 735 mmHg 91%
17:00 +16°C° 0.2 mm 5 mps 735 mmHg 88%
18:00 +15°C° 0.2 mm 5 mps 735 mmHg 84%
19:00 +15°C° 0.2 mm 5 mps 734 mmHg 81%
20:00 +15°C° 0 mm 6 mps 734 mmHg 77%
21:00 +14°C° 0 mm 6 mps 734 mmHg 74%
22:00 +14°C° 0 mm 6 mps 734 mmHg 70%
23:00 +13°C° 0 mm 6 mps 733 mmHg 72%

Day after tomorrow, 6 July, Monday

Time Temperature Precipitation Wind Pressure Humidity
00:00 +11°C° 0 mm 6 mps 733 mmHg 73%
01:00 +11°C° 0 mm 6 mps 733 mmHg 74%
02:00 +11°C° 0.2 mm 6 mps 733 mmHg 75%
03:00 +11°C° 0.2 mm 6 mps 732 mmHg 75%
04:00 +11°C° 0.2 mm 6 mps 732 mmHg 76%
05:00 +11°C° 0.5 mm 6 mps 732 mmHg 75%
06:00 +11°C° 0.5 mm 6 mps 732 mmHg 74%
07:00 +13°C° 0.5 mm 6 mps 732 mmHg 74%
08:00 +13°C° 0.1 mm 6 mps 732 mmHg 74%
09:00 +13°C° 0.1 mm 5 mps 732 mmHg 74%
10:00 +14°C° 0.1 mm 5 mps 732 mmHg 74%
11:00 +14°C° 0.4 mm 4 mps 733 mmHg 76%
12:00 +16°C° 0.4 mm 3 mps 733 mmHg 77%
13:00 +16°C° 0.4 mm 3 mps 733 mmHg 78%
14:00 +17°C° 0.5 mm 3 mps 734 mmHg 78%
15:00 +17°C° 0.5 mm 4 mps 735 mmHg 79%
16:00 +18°C° 0.5 mm 4 mps 735 mmHg 80%
17:00 +17°C° 0.3 mm 4 mps 736 mmHg 79%
18:00 +15°C° 0.3 mm 4 mps 737 mmHg 79%
19:00 +15°C° 0.3 mm 4 mps 738 mmHg 78%
20:00 +13°C° 0 mm 3 mps 739 mmHg 81%
21:00 +13°C° 0 mm 2 mps 740 mmHg 83%
22:00 +10°C° 0 mm 2 mps 741 mmHg 85%
23:00 +10°C° 0 mm 2 mps 742 mmHg 84%

7 July, Tuesday

Time Temperature Precipitation Wind Pressure Humidity
00:00 +10°C° 0 mm 2 mps 742 mmHg 83%
01:00 +10°C° 0 mm 1 mps 743 mmHg 83%
02:00 +10°C° 0 mm 1 mps 744 mmHg 81%
03:00 +10°C° 0 mm 1 mps 744 mmHg 79%
04:00 +11°C° 0 mm 1 mps 745 mmHg 78%
05:00 +12°C° 0 mm 2 mps 745 mmHg 71%
06:00 +13°C° 0 mm 2 mps 745 mmHg 65%
07:00 +14°C° 0 mm 2 mps 746 mmHg 59%
08:00 +15°C° 0 mm 2 mps 746 mmHg 55%
09:00 +16°C° 0 mm 2 mps 746 mmHg 51%
10:00 +18°C° 0 mm 1 mps 747 mmHg 47%
11:00 +16°C° 0.1 mm 2 mps 747 mmHg 49%
12:00 +16°C° 0.1 mm 2 mps 747 mmHg 52%
13:00 +16°C° 0.1 mm 2 mps 747 mmHg 54%
14:00 +16°C° 0.2 mm 2 mps 747 mmHg 58%
15:00 +16°C° 0.2 mm 2 mps 747 mmHg 63%
16:00 +15°C° 0.2 mm 2 mps 748 mmHg 68%
17:00 +16°C° 0.2 mm 2 mps 748 mmHg 67%
18:00 +16°C° 0.2 mm 2 mps 748 mmHg 67%
19:00 +16°C° 0.2 mm 2 mps 748 mmHg 67%
20:00 +14°C° 0 mm 2 mps 749 mmHg 69%
21:00 +12°C° 0 mm 2 mps 749 mmHg 72%
22:00 +10°C° 0 mm 2 mps 750 mmHg 74%
23:00 +9°C° 0 mm 2 mps 750 mmHg 77%

8 July, Wednesday

Time Temperature Precipitation Wind Pressure Humidity
00:00 +8°C° 0 mm 2 mps 750 mmHg 79%
01:00 +9°C° 0 mm 1 mps 751 mmHg 82%
02:00 +8°C° 0 mm 1 mps 751 mmHg 82%
03:00 +8°C° 0 mm 1 mps 751 mmHg 82%
04:00 +8°C° 0 mm 1 mps 751 mmHg 82%
05:00 +10°C° 0 mm 1 mps 751 mmHg 74%
06:00 +12°C° 0 mm 1 mps 751 mmHg 66%
07:00 +15°C° 0 mm 1 mps 751 mmHg 58%
08:00 +16°C° 0 mm 1 mps 751 mmHg 54%
09:00 +17°C° 0 mm 2 mps 751 mmHg 50%
10:00 +18°C° 0 mm 2 mps 750 mmHg 47%
11:00 +18°C° 0.1 mm 3 mps 750 mmHg 50%
12:00 +18°C° 0.1 mm 3 mps 750 mmHg 53%
13:00 +18°C° 0.1 mm 4 mps 749 mmHg 56%
14:00 +17°C° 0.4 mm 4 mps 749 mmHg 65%
15:00 +14°C° 0.4 mm 3 mps 748 mmHg 75%
16:00 +13°C° 0.4 mm 3 mps 748 mmHg 85%
17:00 +12°C° 0.7 mm 3 mps 747 mmHg 89%
18:00 +11°C° 0.7 mm 3 mps 747 mmHg 93%
19:00 +11°C° 0.7 mm 4 mps 746 mmHg 97%
20:00 +11°C° 0.4 mm 3 mps 745 mmHg 97%
21:00 +11°C° 0.4 mm 3 mps 745 mmHg 98%
22:00 +13°C° 0.4 mm 2 mps 744 mmHg 98%
23:00 +12°C° 0.5 mm 2 mps 744 mmHg 98%

9 July, Thursday

Time Temperature Precipitation Wind Pressure Humidity
00:00 +12°C° 0.5 mm 2 mps 743 mmHg 98%
01:00 +12°C° 0.5 mm 1 mps 743 mmHg 98%
02:00 +12°C° 0.6 mm 1 mps 742 mmHg 98%
03:00 +12°C° 0.6 mm 1 mps 742 mmHg 98%
04:00 +12°C° 0.6 mm 1 mps 742 mmHg 98%
05:00 +13°C° 0.4 mm 2 mps 742 mmHg 98%
06:00 +13°C° 0.4 mm 2 mps 742 mmHg 97%
07:00 +12°C° 0.4 mm 3 mps 742 mmHg 96%
08:00 +13°C° 0.3 mm 3 mps 742 mmHg 92%
09:00 +14°C° 0.3 mm 3 mps 743 mmHg 88%
10:00 +15°C° 0.3 mm 4 mps 743 mmHg 84%
11:00 +15°C° 0.7 mm 4 mps 743 mmHg 81%
12:00 +17°C° 0.7 mm 4 mps 744 mmHg 79%
13:00 +18°C° 0.7 mm 4 mps 744 mmHg 76%
14:00 +18°C° 0.7 mm 4 mps 744 mmHg 76%
15:00 +17°C° 0.7 mm 4 mps 745 mmHg 76%
16:00 +17°C° 0.7 mm 4 mps 745 mmHg 76%
17:00 +17°C° 0.2 mm 3 mps 745 mmHg 75%
18:00 +17°C° 0.2 mm 3 mps 746 mmHg 74%
19:00 +16°C° 0.2 mm 2 mps 746 mmHg 73%
20:00 +15°C° 0 mm 2 mps 746 mmHg 77%
21:00 +13°C° 0 mm 2 mps 747 mmHg 81%
22:00 +10°C° 0 mm 2 mps 747 mmHg 85%
23:00 +10°C° 0 mm 2 mps 748 mmHg 86%
Show more